Wind_Speed
23 21 18 15 20 23 18 19 20 18 16 18 19 18 18 16 11 13 16 12 10 9 9 9 9 7 5 3 3 4 5 5 6 8 10 9 10 9 10 10 10 9 7 8 9 10 11 11 12
18 18 10 22 22 16 17 16 17 20 24 25 24 24 22 19 12 8 13 11 11 10 9 9 9 7 7 5 4 5 5 6 7 7 8 10 10 11 10 10 11 10 8 7 11 11 11 11 11
20 14 24 28 21 16 15 15 18 21 23 24 24 25 24 24 23 13 10 10 10 10 9 9 8 8 7 6 4 4 5 6 6 6 7 8 10 11 11 11 11 11 10 10 14 12 13 12 12
14 13 26 28 19 16 16 18 21 20 20 22 26 26 29 29 26 17 13 11 9 10 13 11 9 9 9 7 6 4 3 5 6 5 4 4 7 9 12 11 11 11 13 11 9 13 13 13 13
10 16 24 25 24 25 21 18 18 20 21 20 22 27 29 32 28 24 20 12 10 12 14 15 12 7 8 7 5 4 2 3 5 6 6 5 5 5 10 13 14 13 13 13 8 11 13 13 14
4 25 27 20 17 19 22 22 19 17 17 20 23 26 28 32 31 28 24 22 15 15 17 17 16 13 8 6 5 2 1 1 2 6 8 8 7 7 7 16 15 15 14 12 11 11 13 14 14
22 23 20 20 10 15 21 19 23 24 23 24 22 24 25 27 31 28 27 29 25 22 21 21 19 16 15 11 7 5 3 3 3 4 6 7 7 7 4 14 17 17 15 12 12 11 13 13 14
22 23 27 15 18 13 17 18 26 22 23 20 24 25 24 25 27 28 29 26 26 29 28 25 23 20 17 13 10 9 9 6 5 7 6 8 9 8 7 6 17 18 17 17 14 12 15 14 15
19 27 23 18 21 20 7 15 18 9 16 22 24 24 23 25 27 27 25 26 26 24 24 25 24 20 17 14 11 8 10 11 9 9 10 9 10 11 10 8 12 21 19 18 16 16 16 16 15
21 19 12 9 13 20 18 17 15 19 20 18 23 24 27 25 25 26 25 25 27 27 27 27 30 24 21 15 13 8 9 9 12 12 11 9 10 12 13 10 10 18 21 20 20 19 18 17 15
12 4 8 1 15 19 15 14 18 18 20 14 21 23 24 23 21 23 25 29 31 32 34 30 33 32 33 22 15 10 9 11 11 11 10 10 14 12 15 13 12 14 21 22 21 21 19 18 16
5 7 8 9 14 14 11 20 19 21 17 15 17 20 21 22 21 21 24 23 26 29 29 31 33 31 29 28 28 12 11 10 14 13 12 10 14 13 14 13 15 11 21 23 22 21 20 17 18
17 19 15 17 19 8 15 11 12 20 25 16 16 20 21 20 19 20 22 25 27 28 30 29 28 36 32 27 24 22 12 12 11 8 5 12 16 12 13 14 14 14 20 22 20 19 18 18 17
21 27 23 24 15 14 10 20 15 25 30 8 16 23 25 22 18 17 21 24 26 28 29 32 33 33 35 40 31 25 17 12 9 6 3 9 14 14 13 15 14 16 20 23 21 18 18 18 18
17 17 10 10 7 5 4 20 15 20 27 18 7 13 20 24 20 17 18 23 25 26 25 30 32 33 37 39 39 26 18 12 9 8 3 7 12 16 16 17 16 17 18 19 21 20 18 18 19
18 13 11 8 5 9 20 22 16 17 21 24 7 16 16 26 22 17 17 21 24 24 23 27 30 33 37 40 41 25 21 8 3 10 5 1 10 15 18 18 18 18 18 18 18 20 20 20 19
16 9 11 9 6 13 21 24 14 17 29 19 20 18 20 25 26 21 17 21 21 23 22 24 28 31 35 35 36 30 11 8 3 6 5 2 5 13 15 18 20 18 18 20 21 20 20 21 21
17 15 16 8 7 20 17 13 11 20 24 18 22 29 30 25 27 25 22 19 18 22 23 22 24 27 31 31 31 23 19 12 9 7 8 5 3 7 15 17 18 18 20 19 20 20 19 19 19
19 21 19 16 15 16 15 13 22 25 28 8 24 29 29 31 23 26 23 20 13 19 20 21 25 27 29 29 26 21 18 16 14 10 10 8 6 8 13 17 19 19 21 23 23 21 21 21 18
13 11 20 24 25 28 29 29 29 28 24 14 18 29 33 29 29 22 18 13 15 19 23 25 25 26 27 27 26 27 25 18 17 13 9 11 8 9 10 16 20 21 23 23 23 23 23 23 21
17 22 20 25 31 33 29 36 38 22 11 20 18 20 24 28 30 27 8 12 22 22 24 27 25 26 25 27 27 27 23 27 19 16 12 10 11 9 10 10 17 23 23 25 24 23 22 22 21
17 13 16 24 22 23 24 30 23 14 8 18 9 18 27 32 35 34 14 16 21 21 25 26 25 24 24 28 30 28 24 29 16 17 18 15 12 11 11 12 14 17 22 24 24 25 25 19 21
23 27 22 28 22 25 26 27 22 15 13 17 28 22 22 28 36 31 17 22 28 22 24 25 25 25 27 27 28 33 31 31 15 14 13 17 15 13 12 14 15 17 19 22 21 22 21 23 25
23 30 25 31 28 32 19 21 12 19 18 19 31 27 24 33 37 33 22 30 27 20 22 24 24 24 28 28 28 32 39 33 11 11 13 14 14 14 14 16 17 18 18 21 22 23 23 23 24
25 25 30 31 30 24 3 8 4 7 15 23 26 34 38 40 27 26 29 31 23 18 20 24 27 29 26 30 33 36 41 23 7 10 13 13 10 12 15 16 18 21 20 22 21 19 21 21 21
21 27 35 30 22 12 4 17 12 15 17 24 28 32 34 27 29 34 32 24 22 17 22 26 28 26 30 32 37 42 26 10 6 7 10 10 10 10 8 10 13 14 16 19 18 19 18 19 19
28 34 24 23 18 20 18 12 15 16 22 33 21 24 24 27 25 21 19 18 14 17 23 25 24 26 30 33 42 25 13 12 6 2 5 8 8 9 8 8 8 11 12 14 18 20 20 19 20
29 23 27 26 27 27 22 14 19 18 27 29 25 22 26 23 20 21 17 13 12 18 22 21 20 22 29 39 38 8 15 9 6 4 3 7 9 11 10 9 7 7 10 13 17 18 19 19 18
31 33 26 26 23 17 13 12 22 21 27 30 29 24 27 19 19 19 16 14 14 18 20 16 15 19 24 28 18 12 3 4 4 2 5 8 9 9 8 8 8 9 8 10 11 14 14 15 14
27 35 32 24 31 32 28 23 23 15 23 29 35 34 29 17 17 15 15 14 15 17 16 14 14 15 21 24 4 7 5 7 6 5 5 7 8 8 8 9 8 7 7 6 9 12 14 15 14
Wind_Direction
76 69 68 84 72 73 64 51 35 33 28 44 33 32 19 20 37 40 56 55 47 44 46 50 53 63 85 111 151 182 195 206 206 206 209 203 198 191 190 188 180 168 162 161 158 153 147 141 132
76 74 50 64 59 67 66 57 39 32 35 28 35 29 24 23 39 59 57 52 51 44 43 48 50 65 76 92 128 175 185 195 209 208 204 208 204 199 198 191 182 176 160 157 162 162 156 147 143
78 82 62 50 50 44 48 49 38 31 37 38 30 31 29 26 28 32 52 58 55 53 42 47 48 55 63 61 75 134 173 195 212 218 213 209 205 200 192 198 188 180 174 156 157 159 163 152 155
88 132 58 53 32 32 32 32 28 29 32 38 39 28 30 28 30 37 26 64 57 52 47 42 47 50 46 49 55 68 154 186 206 204 217 207 209 208 201 196 193 185 182 161 158 163 164 160 163
67 36 81 65 22 23 39 33 27 22 23 25 42 38 35 32 34 36 29 62 60 62 59 47 54 61 54 45 47 67 101 171 191 198 205 208 187 203 212 202 197 192 192 188 178 173 168 168 170
279 85 82 69 10 16 21 18 33 28 33 28 23 40 37 40 42 38 42 54 59 62 60 54 51 56 54 53 47 28 28 101 178 197 207 211 221 238 239 205 199 199 195 191 184 183 174 174 174
337 81 67 54 20 356 10 348 14 11 16 26 26 44 42 44 48 53 53 64 64 67 58 54 53 52 52 44 33 14 351 330 310 258 222 214 207 207 234 199 198 201 195 197 192 193 183 185 180
80 60 44 62 97 8 335 4 18 4 3 34 35 35 37 38 40 47 56 64 68 67 61 57 54 45 42 35 30 22 9 334 292 280 268 240 218 206 208 199 205 201 198 195 201 200 195 193 195
93 60 49 29 3 315 340 314 11 1 3 27 43 33 29 38 43 41 50 54 57 56 61 60 53 53 49 42 20 25 14 3 324 267 257 238 227 213 208 208 200 203 200 198 202 206 201 200 201
82 69 60 46 303 297 329 341 336 349 357 12 29 30 26 29 39 37 41 46 48 48 43 43 39 38 40 41 31 355 329 341 324 276 250 229 232 222 214 202 206 207 206 202 203 206 205 206 201
43 24 110 91 309 314 296 324 325 329 329 7 13 19 16 18 22 29 40 34 30 38 38 37 35 31 29 26 22 11 351 334 344 295 284 227 224 215 221 210 218 212 205 205 208 207 208 210 209
229 246 302 183 296 303 321 319 326 319 332 11 5 2 15 11 10 19 33 30 24 25 33 29 27 27 28 26 21 17 1 347 350 339 276 224 221 216 228 218 213 212 207 211 213 211 211 210 217
174 193 212 226 245 215 295 325 288 299 297 340 8 355 1 0 3 12 29 30 23 19 25 24 20 22 24 24 10 9 344 349 348 357 273 219 212 212 220 218 213 214 203 213 214 216 217 217 220
199 196 216 221 229 197 239 294 315 277 291 328 11 354 349 350 353 13 21 23 19 25 20 16 17 20 26 17 12 13 349 323 336 6 293 213 216 215 209 222 223 217 205 214 215 222 220 223 225
224 220 205 166 156 1 288 259 286 297 318 291 328 357 350 1 350 359 9 13 10 15 14 5 11 12 6 3 6 359 359 310 330 3 61 239 222 223 211 213 220 215 211 211 211 221 228 231 231
245 244 179 156 72 306 243 259 286 294 293 298 258 356 344 342 348 348 359 2 3 5 11 1 1 8 6 7 0 347 346 289 302 4 67 155 226 212 223 209 212 214 214 217 215 218 223 232 234
245 220 180 106 53 253 287 318 296 288 281 295 326 301 337 339 338 337 346 352 3 359 5 355 350 6 6 7 14 20 35 80 19 2 331 285 216 213 226 218 211 209 211 219 220 221 226 229 233
232 202 149 141 88 285 280 292 279 273 299 312 329 318 321 325 331 334 330 346 349 353 358 349 342 1 5 3 17 23 26 29 357 338 348 306 235 228 222 214 214 209 212 221 229 230 231 233 231
227 225 206 203 199 231 246 251 244 259 283 329 303 302 300 307 315 320 326 331 335 350 348 341 340 355 3 1 7 13 14 4 349 342 334 315 263 241 242 215 216 210 216 223 227 228 235 239 234
213 244 219 210 209 227 233 242 239 247 264 224 253 268 276 292 300 304 307 327 322 337 337 338 342 346 353 353 2 12 3 354 343 333 325 308 287 256 235 222 215 223 227 228 229 230 234 239 238
218 229 232 236 218 223 239 242 247 261 271 244 236 259 266 283 288 297 303 323 322 321 326 336 344 341 348 344 346 352 346 354 335 324 320 316 299 275 259 235 226 225 224 223 226 236 240 249 242
266 279 245 269 239 250 239 254 252 212 243 265 245 244 256 272 277 300 294 332 342 308 316 329 336 332 337 337 335 341 348 344 333 326 319 324 311 277 256 246 239 232 228 227 234 235 241 242 244
240 247 238 249 235 245 246 251 262 215 230 260 244 232 261 269 273 280 295 330 324 315 311 320 327 321 329 327 328 333 332 335 326 327 319 308 300 285 260 249 241 238 228 226 232 232 233 236 242
250 248 250 248 233 245 258 254 292 211 206 245 257 250 238 246 252 271 305 321 317 307 304 309 315 316 319 324 325 325 320 327 315 316 307 303 288 276 263 256 250 243 236 239 235 237 236 232 236
238 243 245 250 241 259 150 259 14 199 216 259 260 264 269 270 267 282 303 314 308 294 296 304 309 317 320 324 324 321 312 316 286 311 310 315 308 295 281 267 256 250 240 235 239 241 241 245 245
231 235 245 251 242 199 242 271 305 273 253 264 271 268 263 252 288 294 296 297 289 290 298 308 315 320 325 328 327 315 262 287 266 311 316 331 327 322 297 281 265 255 275 232 237 242 248 251 250
227 239 233 241 242 241 237 238 251 250 239 237 229 242 272 294 287 286 299 282 283 289 302 315 321 328 331 330 326 287 283 251 243 276 305 346 340 329 354 323 298 263 230 242 248 248 248 249 249
234 249 223 221 237 237 223 242 255 233 258 251 262 256 260 277 281 292 280 275 275 291 307 313 329 329 340 340 343 285 258 207 234 190 293 307 326 339 3 346 334 266 251 255 246 252 252 252 253
230 239 240 218 225 228 225 251 255 251 244 247 250 239 254 262 289 283 269 262 268 289 301 309 315 328 348 351 6 72 65 260 230 203 280 304 317 345 356 347 344 329 298 257 243 235 242 249 252
240 239 248 246 215 221 231 235 244 247 211 228 232 230 228 244 269 253 254 263 278 283 294 297 308 328 343 346 316 44 323 327 319 294 284 289 311 328 334 330 334 321 318 302 272 262 259 262 266
Height
5917 5918 5917 5918 5916 5909 5911 5911 5909 5908 5906 5903 5901 5898 5894 5891 5889 5887 5883 5882 5881 5880 5879 5879 5880 5881 5882 5883 5884 5886 5888 5888 5889 5890 5892 5892 5893 5895 5896 5897 5898 5899 5900 5901 5902 5904 5905 5905 5906
5921 5920 5921 5915 5912 5916 5914 5914 5913 5911 5908 5904 5902 5899 5896 5893 5890 5886 5883 5882 5880 5880 5880 5880 5881 5881 5882 5883 5884 5886 5887 5888 5890 5891 5891 5892 5893 5895 5896 5897 5899 5900 5901 5901 5903 5905 5906 5907 5908
5922 5925 5920 5913 5915 5919 5917 5916 5915 5913 5911 5908 5905 5902 5899 5894 5888 5885 5884 5882 5882 5882 5882 5882 5882 5882 5882 5883 5884 5885 5887 5888 5890 5891 5892 5892 5893 5895 5896 5898 5899 5901 5902 5903 5904 5906 5907 5908 5909
5922 5908 5914 5912 5923 5921 5921 5918 5915 5916 5915 5912 5907 5906 5899 5895 5890 5887 5884 5885 5884 5884 5884 5884 5884 5884 5884 5884 5885 5886 5886 5888 5889 5890 5892 5893 5894 5895 5896 5898 5900 5902 5903 5904 5905 5906 5908 5908 5910
5923 5920 5913 5915 5922 5921 5923 5921 5921 5917 5916 5915 5910 5906 5903 5898 5894 5891 5887 5887 5886 5887 5886 5885 5884 5884 5884 5885 5886 5887 5888 5888 5889 5889 5890 5892 5894 5895 5896 5898 5900 5902 5903 5904 5906 5907 5908 5909 5910
5920 5911 5917 5922 5926 5924 5923 5922 5921 5920 5919 5917 5914 5907 5906 5903 5898 5894 5890 5888 5889 5888 5888 5886 5886 5885 5884 5885 5886 5887 5888 5889 5889 5889 5890 5891 5893 5894 5895 5897 5900 5901 5903 5904 5906 5908 5909 5909 5910
5925 5924 5926 5927 5927 5928 5927 5923 5921 5921 5918 5917 5916 5910 5909 5907 5903 5901 5896 5892 5891 5890 5889 5887 5886 5885 5885 5886 5886 5887 5888 5888 5889 5890 5891 5891 5892 5892 5894 5896 5898 5900 5902 5904 5906 5907 5909 5910 5910
5925 5927 5929 5929 5928 5930 5930 5925 5927 5925 5923 5920 5918 5914 5912 5909 5907 5906 5904 5900 5895 5892 5890 5889 5888 5887 5886 5886 5886 5886 5887 5887 5887 5888 5889 5890 5891 5891 5893 5895 5897 5899 5901 5903 5905 5907 5908 5909 5911
5931 5930 5932 5930 5929 5934 5931 5925 5927 5927 5925 5920 5919 5918 5916 5911 5910 5908 5906 5901 5899 5896 5893 5891 5890 5889 5887 5887 5888 5887 5886 5885 5885 5886 5887 5887 5888 5890 5891 5893 5895 5897 5899 5902 5904 5906 5907 5909 5911
5930 5934 5937 5936 5938 5935 5930 5927 5926 5927 5927 5923 5919 5921 5918 5914 5913 5911 5907 5905 5902 5899 5898 5896 5894 5892 5889 5888 5887 5887 5886 5885 5883 5881 5883 5885 5887 5889 5890 5892 5893 5895 5898 5901 5902 5905 5906 5908 5911
5931 5937 5936 5941 5940 5935 5934 5931 5925 5926 5924 5926 5920 5921 5919 5917 5915 5914 5910 5906 5903 5902 5900 5898 5897 5894 5891 5889 5886 5885 5885 5884 5882 5880 5879 5882 5884 5887 5888 5890 5892 5894 5896 5899 5901 5903 5905 5908 5910
5924 5933 5937 5939 5938 5936 5933 5928 5925 5924 5923 5922 5921 5920 5921 5919 5917 5914 5912 5910 5906 5904 5902 5900 5896 5894 5892 5888 5887 5885 5883 5883 5882 5880 5877 5878 5882 5884 5886 5889 5890 5893 5896 5898 5901 5903 5904 5907 5909
5922 5926 5928 5930 5932 5934 5933 5934 5932 5924 5922 5920 5919 5920 5921 5921 5918 5916 5914 5911 5908 5904 5903 5900 5898 5894 5890 5888 5885 5883 5882 5880 5880 5877 5875 5876 5879 5882 5885 5888 5890 5892 5894 5896 5900 5902 5904 5907 5908
5920 5920 5921 5923 5927 5930 5931 5930 5931 5925 5919 5920 5921 5921 5921 5922 5919 5918 5915 5912 5908 5905 5901 5898 5895 5891 5889 5887 5883 5881 5878 5877 5878 5876 5873 5875 5877 5880 5883 5885 5888 5890 5891 5894 5898 5901 5903 5905 5907
5916 5916 5917 5921 5926 5926 5928 5929 5927 5925 5921 5920 5920 5921 5920 5920 5919 5918 5915 5912 5908 5906 5902 5897 5894 5890 5887 5882 5879 5877 5877 5876 5877 5877 5874 5874 5875 5879 5880 5883 5885 5889 5891 5892 5895 5898 5902 5903 5905
5915 5917 5918 5919 5920 5924 5927 5926 5926 5927 5923 5914 5916 5916 5918 5917 5916 5915 5914 5911 5908 5906 5903 5898 5894 5890 5887 5881 5877 5866 5871 5871 5875 5877 5874 5872 5873 5876 5878 5880 5882 5885 5888 5891 5893 5896 5898 5900 5902
5912 5915 5918 5918 5921 5925 5926 5923 5923 5923 5919 5916 5914 5913 5914 5914 5914 5913 5913 5911 5909 5905 5903 5899 5894 5891 5887 5882 5878 5873 5866 5870 5874 5876 5875 5872 5871 5873 5875 5878 5879 5883 5886 5889 5891 5892 5894 5897 5899
5909 5911 5909 5912 5916 5921 5920 5921 5919 5919 5918 5909 5910 5905 5909 5913 5912 5914 5912 5911 5908 5905 5902 5898 5894 5892 5889 5884 5882 5879 5876 5875 5876 5875 5873 5873 5871 5872 5873 5875 5878 5880 5882 5885 5889 5890 5891 5893 5895
5901 5903 5903 5907 5912 5915 5916 5916 5916 5914 5912 5911 5906 5906 5908 5911 5912 5911 5911 5910 5908 5905 5901 5898 5893 5892 5889 5887 5884 5880 5880 5879 5877 5875 5872 5872 5872 5870 5872 5871 5874 5876 5879 5882 5884 5886 5888 5890 5892
5894 5896 5899 5903 5906 5908 5908 5908 5909 5911 5909 5911 5908 5908 5908 5907 5908 5910 5909 5908 5906 5903 5898 5894 5893 5891 5887 5885 5883 5880 5877 5877 5875 5873 5871 5870 5868 5869 5869 5869 5870 5873 5875 5878 5881 5883 5884 5886 5889
5889 5892 5895 5896 5898 5898 5900 5900 5901 5905 5904 5906 5906 5904 5904 5903 5903 5905 5906 5904 5904 5901 5896 5892 5891 5888 5885 5883 5881 5878 5875 5873 5872 5870 5868 5868 5866 5865 5867 5867 5868 5869 5871 5873 5877 5879 5882 5882 5885
5885 5890 5891 5891 5893 5893 5897 5893 5895 5898 5900 5901 5901 5898 5900 5898 5897 5899 5900 5900 5901 5899 5894 5891 5889 5886 5884 5881 5877 5875 5874 5871 5868 5868 5863 5863 5863 5863 5863 5863 5865 5866 5867 5869 5872 5875 5876 5878 5878
5881 5885 5886 5885 5886 5886 5888 5888 5890 5894 5896 5895 5895 5893 5894 5894 5893 5894 5897 5895 5896 5895 5891 5889 5887 5885 5882 5879 5876 5870 5867 5867 5864 5863 5861 5860 5861 5860 5860 5859 5860 5861 5862 5864 5865 5867 5869 5871 5872
5877 5878 5879 5879 5880 5877 5884 5884 5886 5888 5891 5891 5888 5890 5893 5891 5891 5892 5890 5891 5892 5891 5889 5887 5884 5882 5879 5875 5872 5868 5863 5863 5860 5860 5860 5859 5858 5857 5856 5856 5856 5856 5858 5858 5860 5861 5863 5864 5866
5871 5872 5872 5872 5873 5874 5881 5881 5882 5884 5888 5887 5888 5887 5886 5886 5887 5889 5890 5889 5887 5886 5886 5884 5880 5876 5874 5870 5867 5862 5856 5857 5856 5856 5857 5856 5853 5853 5851 5851 5851 5852 5851 5851 5855 5856 5857 5859 5860
5863 5866 5865 5865 5868 5874 5874 5876 5880 5881 5883 5884 5883 5881 5881 5882 5883 5883 5886 5886 5884 5882 5881 5879 5875 5870 5867 5865 5860 5854 5852 5853 5852 5853 5854 5853 5851 5851 5848 5847 5846 5847 5846 5845 5848 5851 5852 5853 5855
5856 5857 5862 5862 5865 5866 5868 5873 5875 5875 5875 5875 5872 5873 5875 5877 5879 5880 5880 5879 5879 5878 5876 5874 5871 5866 5864 5860 5856 5841 5848 5851 5850 5850 5852 5850 5850 5851 5845 5844 5843 5843 5842 5844 5845 5847 5848 5848 5848
5850 5854 5856 5857 5859 5860 5864 5868 5868 5871 5865 5868 5871 5873 5874 5875 5874 5874 5874 5875 5875 5874 5873 5870 5868 5866 5861 5852 5846 5839 5843 5849 5849 5846 5849 5850 5848 5847 5842 5843 5841 5841 5841 5841 5841 5843 5844 5846 5846
5844 5846 5849 5853 5855 5857 5861 5864 5861 5865 5867 5867 5866 5869 5868 5869 5868 5868 5870 5872 5872 5871 5870 5868 5867 5865 5860 5854 5847 5846 5847 5849 5846 5844 5846 5847 5847 5844 5841 5841 5839 5838 5837 5837 5838 5839 5842 5842 5842
5836 5839 5843 5846 5848 5850 5854 5858 5855 5860 5859 5862 5861 5860 5861 5859 5862 5864 5865 5867 5867 5867 5867 5866 5864 5862 5858 5854 5853 5850 5851 5848 5847 5847 5845 5845 5844 5841 5840 5837 5835 5836 5835 5834 5835 5836 5837 5838 5838